1504634400.82,10786,14.06,73604.3,0.47,-0.53,-0.53,0,*46
1504634401.99,10787,14.0,73606.0,0.45,-0.53,-0.61,0,*44
1504634403.16,10788,14.06,73598.5,0.45,-0.53,-0.61,0,*4B
1504634404.33,10789,14.06,73600.3,0.45,-0.53,-0.61,0,*4A
1504634405.5,10790,14.06,73588.0,0.45,-0.53,-0.53,0,*43
1504634406.67,10791,14.0,73592.3,0.45,-0.61,-0.53,0,*43
1504634407.83,10792,14.0,73588.0,0.45,-0.61,-0.61,0,*41
1504634409.03,10793,14.06,73602.3,0.47,-0.53,-0.53,0,*42
1504634410.2,10794,14.06,73596.8,0.45,-0.53,-0.53,0,*47
1504634411.4,10795,14.06,73610.0,0.47,-0.53,-0.53,0,*44
1504634412.57,10796,14.06,73592.0,0.45,-0.53,-0.53,0,*45
1504634413.75,10797,14.0,73592.5,0.45,-0.53,-0.53,0,*44
1504634414.91,10798,14.06,73596.0,0.45,-0.61,-0.53,0,*4A
1504634416.08,10799,14.06,73588.3,0.45,-0.53,-0.61,0,*4B
1504634417.25,10800,14.06,73576.0,0.45,-0.61,-0.53,0,*44
1504634418.45,10801,14.06,73572.8,0.47,-0.53,-0.53,0,*46
1504634419.62,10802,14.06,73566.5,0.45,-0.53,-0.53,0,*47
1504634420.81,10803,14.0,73570.5,0.47,-0.61,-0.53,0,*45
1504634421.98,10804,14.06,73580.8,0.45,-0.53,-0.61,0,*40
1504634423.15,10805,14.06,73584.0,0.45,-0.53,-0.53,0,*40
1504634424.33,10806,14.0,73584.0,0.45,-0.53,-0.53,0,*43
1504634425.52,10807,14.06,73588.5,0.47,-0.53,-0.61,0,*41
1504634426.69,10808,14.06,73586.0,0.45,-0.61,-0.53,0,*4C
1504634427.85,10809,14.06,73582.3,0.45,-0.61,-0.61,0,*4C
1504634429.02,10810,14.0,73584.3,0.45,-0.53,-0.61,0,*45
1504634430.2,10811,14.0,73568.3,0.45,-0.53,-0.53,0,*45
1504634431.37,10812,14.0,73576.3,0.45,-0.53,-0.53,0,*46
1504634432.54,10813,14.0,73592.8,0.45,-0.53,-0.53,0,*47
1504634433.71,10814,14.06,73604.8,0.45,-0.53,-0.61,0,*41
1504634434.88,10815,14.06,73604.8,0.45,-0.53,-0.53,0,*41
1504634436.05,10816,14.06,73616.5,0.45,-0.53,-0.61,0,*43
1504634437.25,10817,14.06,73628.3,0.47,-0.53,-0.53,0,*41
1504634438.42,10818,14.06,73606.8,0.45,-0.61,-0.53,0,*4D
1504634439.58,10819,14.06,73604.3,0.45,-0.61,-0.53,0,*4C
1504634440.75,10820,14.06,73598.3,0.45,-0.53,-0.61,0,*46
1504634441.92,10821,14.0,73568.5,0.45,-0.61,-0.61,0,*46
1504634443.11,10822,14.06,73614.5,0.47,-0.61,-0.61,0,*47
1504634444.3,10823,14.06,73598.5,0.47,-0.53,-0.61,0,*47
1504634445.47,10824,14.06,73614.5,0.45,-0.61,-0.53,0,*42
1504634446.63,10825,14.06,73598.0,0.45,-0.53,-0.61,0,*43
1504634447.81,10826,14.0,73608.3,0.45,-0.53,-0.53,0,*41
1504634449.0,10827,14.06,73606.0,0.47,-0.53,-0.61,0,*43
1504634450.17,10828,14.06,73606.0,0.45,-0.61,-0.53,0,*4E
1504634451.34,10829,14.0,73596.5,0.45,-0.53,-0.61,0,*4F
1504634452.5,10830,14.06,73608.0,0.45,-0.61,-0.61,0,*46
1504634453.7,10831,14.06,73590.0,0.47,-0.53,-0.61,0,*44
1504634454.87,10832,14.06,73580.3,0.45,-0.53,-0.53,0,*44
1504634456.04,10833,14.0,73602.0,0.45,-0.53,-0.61,0,*44
1504634457.21,10834,14.06,73584.0,0.45,-0.53,-0.53,0,*42
1504634458.39,10835,14.06,73592.8,0.45,-0.53,-0.53,0,*43
1504634459.58,10836,14.06,73574.3,0.47,-0.53,-0.53,0,*42
1504634460.75,10837,14.0,73586.3,0.45,-0.53,-0.61,0,*40
1504634461.92,10838,14.0,73582.8,0.45,-0.49,-0.53,0,*45
1504634463.09,10839,14.06,73578.3,0.45,-0.53,-0.53,0,*4F
1504634464.26,10840,14.06,73608.0,0.45,-0.61,-0.53,0,*40
1504634465.46,10841,14.06,73600.0,0.47,-0.53,-0.53,0,*42
1504634466.63,10842,14.06,73604.3,0.45,-0.53,-0.53,0,*43
1504634467.81,10843,14.0,73608.8,0.45,-0.53,-0.53,0,*42
1504634468.98,10844,14.06,73598.0,0.45,-0.53,-0.53,0,*45
1504634470.18,10845,14.06,73594.5,0.47,-0.53,-0.53,0,*46
1504634471.36,10846,14.06,73594.0,0.47,-0.61,-0.61,0,*45
1504634472.54,10847,14.06,73596.5,0.45,-0.53,-0.53,0,*46
1504634473.7,10848,14.06,73598.0,0.45,-0.61,-0.53,0,*48
1504634474.89,10849,14.0,73588.5,0.47,-0.61,-0.53,0,*4B
1504634476.09,10850,14.0,73590.0,0.47,-0.53,-0.61,0,*43
1504634477.26,10851,14.06,73614.5,0.45,-0.53,-0.53,0,*41
1504634478.45,10852,14.06,73614.8,0.47,-0.53,-0.61,0,*41
1504634479.63,10853,14.06,73606.5,0.45,-0.53,-0.49,0,*48
1504634480.8,10854,14.0,73604.0,0.45,-0.53,-0.61,0,*45
1504634481.99,10855,14.06,73614.0,0.47,-0.61,-0.53,0,*46
1504634483.17,10856,14.0,73602.8,0.45,-0.53,-0.53,0,*46
1504634484.34,10857,14.06,73600.3,0.45,-0.53,-0.53,0,*47
1504634485.5,10858,14.0,73590.8,0.45,-0.61,-0.61,0,*48
1504634486.67,10859,14.06,73582.3,0.45,-0.53,-0.61,0,*48
1504634487.87,10860,14.06,73570.3,0.47,-0.53,-0.53,0,*41
1504634489.03,10861,14.06,73566.8,0.45,-0.61,-0.61,0,*42
1504634490.23,10862,14.0,73584.3,0.47,-0.53,-0.61,0,*42
1504634491.41,10863,14.0,73618.3,0.47,-0.61,-0.61,0,*42
1504634492.59,10864,14.06,73604.3,0.45,-0.53,-0.53,0,*47
1504634493.75,10865,14.06,73590.5,0.45,-0.61,-0.53,0,*47
1504634494.95,10866,14.06,73600.0,0.47,-0.53,-0.61,0,*46
1504634496.13,10867,14.0,73600.3,0.47,-0.61,-0.61,0,*46
1504634497.33,10868,14.06,73606.3,0.47,-0.53,-0.61,0,*48
1504634498.5,10869,14.06,73604.0,0.45,-0.61,-0.53,0,*4B
1504634499.66,10870,14.0,73600.5,0.45,-0.61,-0.53,0,*43
1504634500.86,10871,14.06,73604.3,0.47,-0.53,-0.53,0,*41
1504634502.03,10872,14.06,73600.5,0.45,-0.53,-0.53,0,*40
1504634503.21,10873,14.06,73586.8,0.45,-0.53,-0.53,0,*41
1504634504.37,10874,14.0,73590.3,0.45,-0.61,-0.53,0,*47
1504634505.55,10875,14.06,73602.8,0.45,-0.53,-0.53,0,*47
1504634506.71,10876,14.06,73608.0,0.45,-0.61,-0.61,0,*44
1504634507.91,10877,14.0,73602.3,0.47,-0.53,-0.53,0,*47
1504634509.1,10878,14.06,73608.3,0.47,-0.53,-0.61,0,*49
1504634510.3,10879,14.06,73612.8,0.47,-0.53,-0.53,0,*49
1504634511.47,10880,14.06,73600.5,0.45,-0.53,-0.53,0,*4D
1504634512.63,10881,14.0,73602.3,0.45,-0.61,-0.61,0,*4C
1504634513.8,10882,14.06,73592.8,0.45,-0.61,-0.61,0,*4F
1504634514.97,10883,14.0,73586.8,0.45,-0.53,-0.53,0,*4E
1504634516.14,10884,14.06,73592.5,0.45,-0.53,-0.61,0,*48
1504634517.31,10885,14.06,73596.3,0.45,-0.53,-0.61,0,*49
1504634518.48,10886,14.06,73588.5,0.43,-0.57,-0.57,0,*4D
1504634519.65,10887,14.0,73568.3,0.45,-0.53,-0.53,0,*4A
1504634520.83,10888,14.0,73564.0,0.45,-0.53,-0.53,0,*45
1504634522.0,10889,14.06,73568.8,0.45,-0.53,-0.53,0,*44
1504634523.19,10890,14.06,73568.3,0.47,-0.61,-0.61,0,*4E
1504634524.36,10891,14.06,73574.5,0.45,-0.53,-0.53,0,*4D
1504634525.53,10892,14.06,73580.3,0.45,-0.49,-0.53,0,*45
1504634526.7,10893,14.06,73586.5,0.45,-0.49,-0.53,0,*44
1504634527.87,10894,14.0,73588.5,0.45,-0.53,-0.61,0,*49
1504634529.07,10895,14.06,73598.0,0.47,-0.53,-0.53,0,*4B
1504634530.24,10896,14.0,73596.3,0.45,-0.53,-0.61,0,*4B
1504634531.41,10897,14.0,73600.5,0.45,-0.49,-0.53,0,*40
1504634532.57,10898,14.06,73600.8,0.45,-0.61,-0.53,0,*45
1504634533.74,10899,14.06,73596.3,0.45,-0.65,-0.61,0,*41
1504634534.94,10900,14.0,73596.3,0.47,-0.53,-0.53,0,*46
1504634536.1,10901,14.06,73596.3,0.45,-0.61,-0.61,0,*45
1504634537.29,10902,14.0,73592.0,0.47,-0.61,-0.53,0,*45
1504634538.49,10903,14.0,73594.5,0.47,-0.53,-0.61,0,*44
1504634539.69,10904,14.06,73600.0,0.47,-0.53,-0.53,0,*42
1504634540.88,10905,14.0,73602.3,0.47,-0.61,-0.53,0,*42
1504634542.07,10906,14.0,73602.3,0.47,-0.53,-0.61,0,*41
1504634543.24,10907,14.0,73608.5,0.45,-0.53,-0.53,0,*43
1504634544.41,10908,14.06,73618.5,0.45,-0.61,-0.53,0,*4D
1504634545.58,10909,14.0,73616.5,0.45,-0.53,-0.61,0,*4C
1504634546.75,10910,14.0,73618.5,0.45,-0.53,-0.61,0,*44
1504634547.92,10911,14.06,73612.8,0.45,-0.53,-0.53,0,*44
1504634549.09,10912,14.0,73598.0,0.45,-0.61,-0.53,0,*46
1504634550.26,10913,14.0,73594.0,0.45,-0.53,-0.53,0,*46
1504634551.43,10914,14.06,73590.0,0.45,-0.61,-0.53,0,*40
1504634552.6,10915,14.06,73592.0,0.45,-0.61,-0.53,0,*41
1504634553.79,10916,14.0,73590.3,0.47,-0.61,-0.53,0,*40
1504634554.96,10917,14.0,73586.0,0.45,-0.53,-0.61,0,*43
1504634556.13,10918,14.0,73578.0,0.45,-0.53,-0.53,0,*4D
1504634557.3,10919,14.0,73578.0,0.45,-0.49,-0.53,0,*47
1504634558.49,10920,14.06,73576.3,0.47,-0.49,-0.53,0,*4F
1504634559.68,10921,14.0,73566.8,0.47,-0.61,-0.53,0,*44
1504634560.88,10922,14.0,73562.8,0.47,-0.53,-0.53,0,*46
1504634562.05,10923,14.06,73568.0,0.45,-0.61,-0.53,0,*44
1504634563.22,10924,14.06,73576.3,0.45,-0.61,-0.49,0,*48
1504634564.39,10925,14.06,73584.0,0.45,-0.61,-0.53,0,*42
1504634565.55,10926,14.06,73588.8,0.45,-0.61,-0.53,0,*41
1504634566.72,10927,14.0,73558.8,0.45,-0.53,-0.61,0,*40
1504634567.92,10928,14.0,73558.3,0.47,-0.53,-0.61,0,*4D
1504634569.09,10929,14.0,73560.3,0.45,-0.53,-0.53,0,*4F
1504634570.26,10930,14.06,73562.0,0.45,-0.53,-0.61,0,*46
1504634571.43,10931,14.0,73570.5,0.45,-0.53,-0.53,0,*46
1504634572.6,10932,14.0,73572.8,0.45,-0.53,-0.61,0,*44
1504634573.77,10933,14.0,73580.0,0.45,-0.61,-0.61,0,*44
1504634574.96,10934,14.0,73574.5,0.47,-0.53,-0.53,0,*41
1504634576.16,10935,14.0,73578.3,0.47,-0.53,-0.53,0,*40
1504634577.33,10936,14.0,73576.3,0.45,-0.61,-0.53,0,*40
1504634578.53,10937,14.0,73550.5,0.47,-0.53,-0.53,0,*42
1504634579.7,10938,14.0,73554.3,0.45,-0.49,-0.49,0,*4F
1504634580.87,10939,14.0,73548.0,0.45,-0.61,-0.53,0,*4F
1504634582.06,10940,14.0,73552.3,0.47,-0.53,-0.61,0,*43
1504634583.23,10941,14.0,73544.5,0.45,-0.61,-0.53,0,*40
1504634584.39,10942,14.0,73530.0,0.45,-0.61,-0.53,0,*43
1504634585.57,10943,14.06,73536.8,0.45,-0.53,-0.53,0,*43
1504634586.74,10944,14.0,73544.8,0.45,-0.53,-0.53,0,*44
1504634587.94,10945,14.0,73554.5,0.47,-0.53,-0.53,0,*47
1504634589.11,10946,14.06,73550.3,0.45,-0.61,-0.53,0,*47
1504634590.3,10947,14.06,73572.3,0.47,-0.53,-0.53,0,*45
1504634591.48,10948,14.0,73546.5,0.45,-0.53,-0.53,0,*48
1504634592.67,10949,14.06,73544.3,0.47,-0.53,-0.61,0,*4A
1504634593.84,10950,14.0,73534.5,0.45,-0.53,-0.61,0,*40
1504634595.04,10951,14.0,73544.3,0.47,-0.53,-0.53,0,*42
1504634596.21,10952,14.06,73550.0,0.45,-0.53,-0.53,0,*43
1504634597.41,10953,14.06,73546.8,0.47,-0.53,-0.53,0,*40
1504634598.58,10954,14.06,73552.8,0.45,-0.53,-0.53,0,*45
1504634599.77,10955,14.06,73566.5,0.47,-0.53,-0.61,0,*47
1504634600.94,10956,14.0,73570.8,0.45,-0.61,-0.53,0,*46
1504634602.11,10957,14.06,73570.5,0.45,-0.53,-0.61,0,*47
1504634603.28,10958,14.06,73572.3,0.45,-0.53,-0.61,0,*48
1504634604.45,10959,14.06,73566.8,0.45,-0.53,-0.53,0,*48
1504634605.65,10960,14.06,73562.0,0.47,-0.53,-0.61,0,*41
1504634606.84,10961,14.0,73558.8,0.47,-0.61,-0.53,0,*40
1504634608.03,10962,14.06,73568.0,0.47,-0.53,-0.61,0,*43
1504634609.23,10963,14.0,73570.5,0.47,-0.53,-0.53,0,*43
1504634610.4,10964,14.06,73590.0,0.45,-0.61,-0.53,0,*47
1504634611.57,10965,14.06,73572.5,0.45,-0.53,-0.61,0,*46
1504634612.76,10966,14.0,73574.3,0.47,-0.53,-0.53,0,*46
1504634613.96,10967,14.0,73576.0,0.47,-0.53,-0.53,0,*47
1504634615.14,10968,14.06,73574.0,0.45,-0.53,-0.49,0,*41
1504634616.31,10969,14.06,73574.3,0.45,-0.53,-0.53,0,*4B
1504634617.48,10970,14.0,73598.8,0.45,-0.53,-0.61,0,*42
1504634618.67,10971,14.06,73590.0,0.47,-0.61,-0.53,0,*41
1504634619.85,10972,14.06,73572.8,0.45,-0.53,-0.53,0,*41
1504634621.02,10973,14.06,73582.8,0.45,-0.53,-0.53,0,*40
1504634622.19,10974,14.06,73580.3,0.45,-0.53,-0.53,0,*47
1504634623.36,10975,14.06,73576.3,0.45,-0.53,-0.53,0,*46
1504634624.53,10976,14.0,73570.3,0.45,-0.53,-0.61,0,*44
1504634625.73,10977,14.0,73580.5,0.47,-0.53,-0.61,0,*47
1504634626.92,10978,14.0,73582.5,0.47,-0.53,-0.61,0,*48
1504634628.09,10979,14.06,73580.0,0.45,-0.53,-0.61,0,*4B
1504634629.27,10980,14.0,73590.3,0.45,-0.53,-0.53,0,*4C
1504634630.46,10981,14.0,73596.3,0.47,-0.53,-0.61,0,*4E
1504634631.66,10982,14.0,73598.8,0.47,-0.53,-0.53,0,*4C
1504634632.83,10983,14.06,73600.5,0.45,-0.53,-0.53,0,*4F
1504634634.0,10984,14.06,73592.0,0.45,-0.61,-0.53,0,*49
1504634635.16,10985,14.0,73586.3,0.45,-0.61,-0.53,0,*48
1504634636.36,10986,14.06,73576.8,0.47,-0.53,-0.53,0,*48
1504634637.55,10987,14.06,73586.5,0.47,-0.53,-0.61,0,*48
1504634638.75,10988,14.06,73602.0,0.47,-0.53,-0.53,0,*46
1504634639.94,10989,14.06,73594.8,0.47,-0.61,-0.53,0,*46
1504634641.11,10990,14.06,73620.5,0.45,-0.61,-0.53,0,*4C
1504634642.28,10991,14.06,73620.0,0.45,-0.61,-0.53,0,*4D
1504634643.45,10992,14.0,73602.3,0.45,-0.53,-0.53,0,*4F
1504634644.62,10993,14.0,73620.0,0.45,-0.61,-0.53,0,*4F
1504634645.79,10994,14.0,73614.5,0.45,-0.53,-0.53,0,*49
1504634646.96,10995,14.0,73622.3,0.45,-0.53,-0.53,0,*48
1504634648.13,10996,14.06,73630.8,0.45,-0.61,-0.61,0,*4B
1504634649.3,10997,14.06,73616.5,0.45,-0.53,-0.53,0,*4A
1504634650.47,10998,14.06,73622.5,0.45,-0.53,-0.53,0,*45
1504634651.64,10999,14.06,73594.8,0.45,-0.53,-0.61,0,*45
1504634652.81,11000,14.06,73584.8,0.45,-0.61,-0.53,0,*4D
1504634653.97,11001,14.06,73634.8,0.45,-0.61,-0.61,0,*4D
1504634655.14,11002,14.06,73606.5,0.45,-0.53,-0.53,0,*4E
1504634656.34,11003,14.06,73620.8,0.47,-0.53,-0.53,0,*4D
1504634657.52,11004,14.06,73626.8,0.45,-0.53,-0.53,0,*48
1504634658.69,11005,14.06,73614.3,0.45,-0.53,-0.53,0,*49
1504634659.86,11006,14.06,73616.5,0.45,-0.53,-0.53,0,*4A
1504634661.03,11007,14.0,73618.8,0.45,-0.53,-0.53,0,*4B
1504634662.23,11008,14.06,73618.5,0.47,-0.53,-0.61,0,*47
1504634663.4,11009,14.06,73616.5,0.45,-0.53,-0.61,0,*44
1504634664.57,11010,14.0,73614.8,0.45,-0.53,-0.53,0,*4D
1504634665.74,11011,14.06,73608.5,0.43,-0.65,-0.57,0,*4B
1504634666.91,11012,14.06,73616.0,0.45,-0.61,-0.53,0,*4E
1504634668.08,11013,14.06,73622.5,0.45,-0.53,-0.53,0,*4E
1504634669.25,11014,14.06,73582.3,0.45,-0.53,-0.53,0,*49
1504634670.45,11015,14.06,73586.0,0.47,-0.53,-0.53,0,*4A
1504634671.62,11016,14.06,73616.0,0.45,-0.61,-0.53,0,*4A
1504634672.81,11017,14.0,73606.0,0.47,-0.53,-0.53,0,*48
1504634673.98,11018,14.06,73598.8,0.45,-0.61,-0.61,0,*45
1504634675.17,11019,14.0,73622.5,0.47,-0.53,-0.53,0,*46
1504634676.35,11020,14.06,73622.3,0.45,-0.53,-0.61,0,*4F
1504634677.51,11021,14.06,73624.5,0.45,-0.61,-0.53,0,*4E
1504634678.68,11022,14.0,73618.5,0.45,-0.61,-0.53,0,*4D
1504634679.85,11023,14.06,73604.3,0.45,-0.53,-0.61,0,*4C
1504634681.02,11024,14.06,73616.0,0.45,-0.53,-0.53,0,*4A
1504634682.19,11025,14.06,73610.3,0.45,-0.53,-0.53,0,*4B
1504634683.39,11026,14.06,73608.8,0.47,-0.53,-0.53,0,*4A
1504634684.58,11027,14.06,73638.0,0.47,-0.53,-0.61,0,*4A
1504634685.79,11028,14.06,73632.3,0.47,-0.53,-0.49,0,*4F
1504634686.96,11029,14.06,73628.0,0.45,-0.53,-0.53,0,*47
1504634688.13,11030,14.06,73634.8,0.45,-0.61,-0.53,0,*4E
1504634689.3,11031,14.06,73630.0,0.45,-0.53,-0.53,0,*4E
1504634690.47,11032,14.06,73630.8,0.45,-0.61,-0.53,0,*4C
1504634691.66,11033,14.06,73626.5,0.47,-0.53,-0.53,0,*4E
1504634692.86,11034,14.06,73624.8,0.47,-0.61,-0.53,0,*48
1504634694.05,11035,14.06,73624.5,0.47,-0.49,-0.61,0,*42
1504634695.21,11036,14.06,73622.3,0.45,-0.53,-0.61,0,*48
1504634696.39,11037,14.06,73632.5,0.45,-0.53,-0.61,0,*49
1504634697.55,11038,14.06,73628.5,0.45,-0.61,-0.53,0,*46
1504634698.72,11039,14.06,73630.3,0.45,-0.53,-0.61,0,*47
1504634699.89,11040,14.06,73620.0,0.45,-0.53,-0.53,0,*48
1504634701.09,11041,14.06,73616.8,0.47,-0.61,-0.53,0,*4A
1504634702.29,11042,14.06,73622.3,0.47,-0.53,-0.49,0,*43
1504634703.45,11043,14.06,73612.8,0.45,-0.61,-0.61,0,*4B
1504634704.65,11044,14.06,73612.8,0.47,-0.53,-0.53,0,*4E
1504634705.84,11045,14.06,73618.8,0.47,-0.61,-0.61,0,*4F
1504634707.01,11046,14.0,73618.8,0.45,-0.53,-0.53,0,*4E
1504634708.2,11047,14.06,73616.0,0.47,-0.53,-0.61,0,*4C
1504634709.39,11048,14.06,73620.3,0.47,-0.61,-0.53,0,*43
1504634710.59,11049,14.06,73612.5,0.47,-0.49,-0.53,0,*48
1504634711.78,11050,14.06,73598.0,0.47,-0.49,-0.53,0,*40
1504634712.97,11051,14.06,73582.0,0.47,-0.61,-0.53,0,*4B
1504634714.14,11052,14.06,73590.0,0.45,-0.61,-0.53,0,*4A
1504634715.32,11053,14.06,73594.5,0.45,-0.53,-0.49,0,*41
1504634716.51,11054,14.06,73598.8,0.47,-0.53,-0.53,0,*4F
1504634717.69,11055,14.06,73586.5,0.45,-0.53,-0.49,0,*47
1504634718.87,11056,14.06,73580.5,0.45,-0.53,-0.53,0,*4F
1504634720.06,11057,14.0,73580.0,0.47,-0.53,-0.61,0,*4D
1504634721.23,11058,14.06,73590.5,0.45,-0.53,-0.61,0,*40
1504634722.4,11059,14.06,73606.3,0.45,-0.53,-0.53,0,*40
1504634723.58,11060,14.0,73588.5,0.45,-0.53,-0.53,0,*4A
1504634724.76,11061,14.0,73576.5,0.47,-0.61,-0.61,0,*49
1504634725.96,11062,14.06,73572.8,0.47,-0.53,-0.53,0,*4A
1504634727.13,11063,14.06,73582.0,0.45,-0.53,-0.53,0,*49
1504634728.3,11064,14.0,73576.0,0.45,-0.53,-0.61,0,*4F
1504634729.49,11065,14.06,73588.0,0.47,-0.61,-0.53,0,*4C
1504634730.68,11066,14.0,73586.0,0.47,-0.61,-0.61,0,*4E
1504634731.85,11067,14.0,73592.3,0.45,-0.61,-0.53,0,*4C
1504634733.02,11068,14.06,73598.0,0.45,-0.53,-0.53,0,*42
1504634734.19,11069,14.0,73598.5,0.45,-0.53,-0.53,0,*43
1504634735.37,11070,14.06,73600.3,0.45,-0.53,-0.53,0,*4B
1504634736.56,11071,14.06,73606.3,0.47,-0.53,-0.53,0,*48
1504634737.74,11072,14.06,73610.8,0.45,-0.53,-0.53,0,*49
1504634738.9,11073,14.06,73592.8,0.45,-0.61,-0.61,0,*48
1504634740.1,11074,14.0,73580.5,0.47,-0.53,-0.53,0,*4D
1504634741.27,11075,14.06,73580.0,0.45,-0.53,-0.53,0,*4E
1504634742.44,11076,14.06,73618.0,0.45,-0.61,-0.53,0,*4C
1504634743.63,11077,14.06,73594.0,0.47,-0.61,-0.53,0,*4F
1504634744.83,11078,14.06,73584.8,0.47,-0.53,-0.53,0,*41
1504634745.99,11079,14.06,73602.3,0.45,-0.61,-0.53,0,*43
1504634747.19,11080,14.06,73616.0,0.47,-0.53,-0.53,0,*46
1504634748.36,11081,14.06,73608.5,0.45,-0.61,-0.53,0,*44
1504634749.53,11082,14.06,73598.3,0.45,-0.53,-0.53,0,*46
1504634750.72,11083,14.06,73606.5,0.47,-0.61,-0.61,0,*45
1504634751.89,11084,14.06,73622.3,0.45,-0.53,-0.53,0,*40
1504634753.09,11085,14.06,73634.8,0.47,-0.53,-0.53,0,*43
1504634754.28,11086,14.06,73622.0,0.47,-0.53,-0.61,0,*41
1504634755.46,11087,14.06,73616.5,0.45,-0.53,-0.53,0,*43
1504634756.62,11088,14.06,73630.5,0.45,-0.49,-0.61,0,*46
1504634757.82,11089,14.06,73640.8,0.47,-0.49,-0.53,0,*44
1504634758.99,11090,14.06,73638.0,0.45,-0.53,-0.61,0,*44
1504634760.18,11091,14.06,73620.3,0.47,-0.53,-0.53,0,*46
1504634761.38,11092,14.06,73596.3,0.47,-0.53,-0.53,0,*45
1504634762.58,11093,14.0,73572.0,0.47,-0.53,-0.53,0,*44
1504634763.74,11094,14.06,73558.0,0.45,-0.61,-0.61,0,*41
1504634764.94,11095,14.06,73558.0,0.47,-0.53,-0.53,0,*42
1504634766.13,11096,14.06,73564.5,0.47,-0.61,-0.61,0,*41
1504634767.29,11097,14.0,73576.5,0.45,-0.61,-0.61,0,*42
1504634768.46,11098,14.0,73574.8,0.45,-0.53,-0.53,0,*4D
1504634769.66,11099,14.06,73582.3,0.47,-0.53,-0.61,0,*4F
1504634770.83,11100,14.06,73596.8,0.45,-0.49,-0.53,0,*46
1504634772.01,11101,14.06,73592.8,0.47,-0.61,-0.61,0,*4E
1504634773.2,11102,14.06,73594.5,0.47,-0.61,-0.53,0,*4C
1504634774.4,11103,14.06,73596.5,0.47,-0.53,-0.61,0,*4D
1504634775.57,11104,14.06,73594.0,0.45,-0.61,-0.53,0,*48
1504634776.75,11105,14.06,73594.8,0.47,-0.61,-0.61,0,*4A
1504634777.95,11106,14.06,73596.5,0.47,-0.53,-0.61,0,*48
1504634779.12,11107,14.06,73594.8,0.45,-0.53,-0.53,0,*4A
1504634780.29,11108,14.06,73590.8,0.45,-0.53,-0.53,0,*45
1504634781.48,11109,14.06,73604.3,0.47,-0.61,-0.53,0,*47
1504634782.68,11110,14.06,73612.0,0.47,-0.53,-0.61,0,*4F
1504634783.88,11111,14.06,73616.3,0.47,-0.53,-0.53,0,*4F
1504634785.05,11112,14.06,73616.0,0.45,-0.53,-0.61,0,*4F
1504634786.22,11113,14.0,73614.5,0.45,-0.53,-0.53,0,*4F
1504634787.39,11114,14.06,73616.3,0.45,-0.53,-0.53,0,*48
1504634788.56,11115,14.06,73616.3,0.45,-0.53,-0.53,0,*49
1504634789.76,11116,14.06,73622.5,0.47,-0.53,-0.61,0,*49
1504634790.96,11117,14.06,73622.3,0.47,-0.53,-0.53,0,*49
1504634792.15,11118,14.06,73614.3,0.47,-0.53,-0.61,0,*47
1504634793.32,11119,14.06,73622.8,0.45,-0.61,-0.53,0,*44
1504634794.51,11120,14.06,73624.8,0.47,-0.61,-0.53,0,*4C
1504634795.69,11121,14.06,73626.3,0.47,-0.61,-0.61,0,*4C
1504634796.89,11122,14.06,73626.8,0.47,-0.53,-0.61,0,*4E
1504634798.06,11123,14.06,73630.8,0.45,-0.61,-0.53,0,*4D
1504634799.25,11124,14.06,73626.0,0.47,-0.53,-0.61,0,*48
1504634800.42,11125,14.0,73624.3,0.45,-0.53,-0.61,0,*4B
1504634801.62,11126,14.06,73632.3,0.47,-0.53,-0.49,0,*40
1504634802.79,11127,14.06,73630.3,0.45,-0.53,-0.53,0,*48
1504634803.97,11128,14.06,73630.8,0.45,-0.53,-0.53,0,*47
1504634805.16,11129,14.0,73622.3,0.47,-0.53,-0.61,0,*45
1504634806.33,11130,14.06,73618.0,0.45,-0.49,-0.53,0,*45
1504634807.52,11131,14.0,73618.3,0.47,-0.61,-0.53,0,*4C
1504634808.71,11132,14.06,73620.0,0.47,-0.61,-0.53,0,*4F
1504634809.88,11133,14.06,73620.0,0.45,-0.53,-0.61,0,*4C
1504634811.06,11134,14.06,73622.8,0.45,-0.53,-0.53,0,*4A
1504634812.23,11135,14.06,73628.8,0.45,-0.53,-0.53,0,*4B
1504634813.4,11136,14.06,73626.3,0.45,-0.53,-0.53,0,*48
1504634814.6,11137,14.06,73630.5,0.47,-0.53,-0.61,0,*4A
1504634815.78,11138,14.06,73622.0,0.47,-0.61,-0.61,0,*44
1504634816.95,11139,14.06,73616.8,0.45,-0.61,-0.49,0,*4D
1504634818.12,11140,14.06,73612.5,0.45,-0.61,-0.53,0,*48
1504634819.29,11141,14.06,73612.8,0.45,-0.53,-0.61,0,*49
1504634820.46,11142,14.06,73610.3,0.45,-0.53,-0.53,0,*4B
1504634821.64,11143,14.06,73606.5,0.45,-0.53,-0.53,0,*4A
1504634822.83,11144,14.06,73602.8,0.47,-0.53,-0.53,0,*4F
1504634824.03,11145,14.06,73598.5,0.47,-0.53,-0.61,0,*4F
1504634825.23,11146,14.06,73598.3,0.47,-0.53,-0.53,0,*4D
1504634826.39,11147,14.06,73604.0,0.45,-0.53,-0.61,0,*4F
1504634827.56,11148,14.06,73602.8,0.45,-0.61,-0.53,0,*40
1504634828.73,11149,14.06,73602.8,0.45,-0.61,-0.53,0,*41
1504634829.93,11150,14.06,73590.5,0.47,-0.53,-0.53,0,*4A
1504634831.09,11151,14.06,73574.8,0.45,-0.61,-0.53,0,*48
1504634832.26,11152,14.06,73584.8,0.45,-0.61,-0.53,0,*4B
1504634833.45,11153,14.06,73578.5,0.47,-0.53,-0.61,0,*48
1504634834.65,11154,14.0,73592.5,0.47,-0.53,-0.61,0,*4F
1504634835.82,11155,14.06,73610.3,0.45,-0.53,-0.53,0,*4D
1504634837.02,11156,14.06,73616.8,0.47,-0.49,-0.53,0,*47
1504634838.21,11157,14.0,73634.8,0.47,-0.49,-0.53,0,*46
1504634839.41,11158,14.06,73636.0,0.47,-0.53,-0.53,0,*42
1504634840.6,11159,14.0,73638.3,0.47,-0.61,-0.53,0,*42
1504634841.79,11160,14.06,73638.0,0.47,-0.61,-0.53,0,*48
1504634842.96,11161,14.06,73624.5,0.45,-0.49,-0.53,0,*41
1504634844.13,11162,14.06,73612.3,0.45,-0.53,-0.53,0,*49
1504634845.3,11163,14.06,73604.3,0.45,-0.61,-0.53,0,*49
1504634846.49,11164,14.0,73604.3,0.47,-0.61,-0.53,0,*4C
1504634847.66,11165,14.06,73580.0,0.45,-0.53,-0.53,0,*4E
1504634848.83,11166,14.06,73578.0,0.45,-0.49,-0.53,0,*46
1504634850.01,11167,14.06,73574.3,0.45,-0.49,-0.49,0,*4C
1504634851.18,11168,14.06,73580.5,0.45,-0.49,-0.53,0,*48
1504634852.35,11169,14.06,73568.8,0.45,-0.53,-0.53,0,*42
1504634853.54,11170,14.06,73546.5,0.47,-0.61,-0.61,0,*48
1504634854.71,11171,14.0,73532.0,0.45,-0.53,-0.53,0,*4B
1504634855.88,11172,14.06,73496.8,0.45,-0.53,-0.53,0,*48
1504634857.06,11173,14.06,73530.0,0.45,-0.53,-0.53,0,*49
1504634858.22,11174,14.0,73518.8,0.45,-0.61,-0.53,0,*4F
1504634859.41,11175,14.06,73566.3,0.47,-0.61,-0.61,0,*4D
1504634860.61,11176,14.06,73582.3,0.47,-0.53,-0.53,0,*4E
1504634861.78,11177,14.06,73568.3,0.45,-0.53,-0.61,0,*4C
1504634862.95,11178,14.0,73574.8,0.45,-0.53,-0.61,0,*43
1504634864.12,11179,14.06,73568.8,0.45,-0.53,-0.61,0,*42
1504634865.28,11180,14.06,73590.0,0.45,-0.61,-0.53,0,*44
1504634866.45,11181,14.06,73548.5,0.45,-0.53,-0.61,0,*45
1504634867.65,11182,14.06,73560.8,0.47,-0.53,-0.53,0,*45
1504634868.85,11183,14.06,73566.3,0.47,-0.53,-0.53,0,*44
1504634870.04,11184,14.06,73572.0,0.47,-0.53,-0.61,0,*42
1504634871.22,11185,14.06,73580.3,0.45,-0.53,-0.53,0,*40
1504634872.41,11186,14.06,73572.3,0.47,-0.53,-0.53,0,*41
1504634873.59,11187,14.06,73570.0,0.45,-0.53,-0.53,0,*42
1504634874.78,11188,14.06,73584.8,0.47,-0.53,-0.53,0,*4F
1504634875.96,11189,14.0,73552.8,0.45,-0.53,-0.53,0,*4C
1504634877.12,11190,14.06,73612.0,0.45,-0.61,-0.61,0,*44
1504634878.28,11191,14.06,73598.5,0.45,-0.61,-0.61,0,*45
1504634879.45,11192,14.06,73590.3,0.45,-0.53,-0.61,0,*47
1504634880.65,11193,14.0,73582.8,0.47,-0.53,-0.53,0,*45
1504634881.82,11194,14.06,73586.5,0.45,-0.53,-0.53,0,*40
1504634883.02,11195,14.06,73568.5,0.47,-0.53,-0.61,0,*42
1504634884.19,11196,14.06,73590.5,0.45,-0.53,-0.53,0,*42
1504634885.39,11197,14.06,73580.5,0.47,-0.53,-0.53,0,*41
1504634886.55,11198,14.06,73570.0,0.45,-0.61,-0.61,0,*4C
1504634887.75,11199,14.06,73572.3,0.47,-0.53,-0.53,0,*4F
1504634888.92,11200,14.06,73554.5,0.45,-0.53,-0.53,0,*4E
1504634890.12,11201,14.06,73570.5,0.47,-0.53,-0.53,0,*4D
1504634891.29,11202,14.06,73558.8,0.45,-0.61,-0.53,0,*4D
1504634892.45,11203,14.0,73566.5,0.45,-0.61,-0.61,0,*4D
1504634893.62,11204,14.06,73584.0,0.45,-0.61,-0.53,0,*4B
1504634894.81,11205,14.06,73578.5,0.47,-0.61,-0.53,0,*48
1504634895.97,11206,14.06,73578.0,0.45,-0.61,-0.53,0,*49
1504634897.15,11207,14.06,73578.8,0.45,-0.53,-0.53,0,*49
1504634898.34,11208,14.06,73586.5,0.47,-0.53,-0.53,0,*44